Zamboanga, Philippines

12:42 PM +08 on April 23, 2018 (GMT +0800)
Zamboanga International

Weather History for RPMZ - September, 2012

Change the Weather History Date:

Sunday, September 30, 2012

  Actual Average Record
Temperature  
Mean Temperature 82 °F -  
Max Temperature 89 °F 89 °F - ()
Min Temperature 76 °F 74 °F - ()
Cooling Degree Days 18    
Growing Degree Days 32 (Base 50)    
Moisture  
Dew Point 77 °F    
Average Humidity 81    
Maximum Humidity 94    
Minimum Humidity 65    
Precipitation  
Precipitation 0.00 in 0.21 in - ()
Sea Level Pressure  
Sea Level Pressure 29.90 in    
Wind  
Wind Speed 2 mph ()    
Max Wind Speed 9 mph    
Max Gust Speed -    
Visibility 5.3 miles    
Events Rain    
T = Trace of Precipitation, MM = Missing Value Source: Averaged Metar Reports

Daily Weather History Graph

Daily Weather History Graph

Search for Another Location

Airport or City:

Astronomy

Sep. 30, 2012 Rise Set
Actual Time 5:39 AM +08 5:43 PM +08
Civil Twilight 5:18 AM +08 6:04 PM +08
Nautical Twilight 4:54 AM +08 6:28 PM +08
Astronomical Twilight 4:30 AM +08 6:52 PM +08
Moon 5:43 PM +08 (9/30) 5:26 AM +08 (9/30)
Length of Visible Light 12h 45m
Length of Day
12h 03m
Full, 100% of the Moon is Illuminated
Sep 30
Full
Oct 8
Last Quarter
Oct 15
New
Oct 22
First Quarter
Oct 30
Full

Hourly Weather History & Observations

Time (+08) Temp. Heat Index Dew Point Humidity Pressure Visibility Wind Dir Wind Speed Gust Speed Precip Events Conditions
2:00 AM 79 °F - 76 °F 87% 29.88 in 6 mi Calm Calm - -   Haze
2:00 AM 78.8 °F - 75.2 °F 89% 29.89 in 5.6 mi Calm Calm - N/A   Mostly Cloudy
5:00 AM 77 °F - 74 °F 90% 29.87 in 5 mi Calm Calm - -   Haze
5:00 AM 77.0 °F - 75.2 °F 94% 29.86 in 5.0 mi Calm Calm - N/A   Overcast
6:00 AM 77.0 °F - 73.4 °F 89% 29.89 in 5.6 mi Calm Calm - N/A   Mostly Cloudy
7:00 AM 78.8 °F - 75.2 °F 89% 29.89 in 5.0 mi Calm Calm - N/A   Partly Cloudy
8:00 AM 83 °F - 77 °F 79% 29.91 in 6 mi WSW 4.5 mph - -   Haze
8:00 AM 82.4 °F 90.9 °F 77.0 °F 84% 29.92 in 5.6 mi WSW 4.6 mph - N/A   Scattered Clouds
9:00 AM 84.2 °F 96.1 °F 78.8 °F 84% 29.95 in 5.6 mi WSW 4.6 mph - N/A   Mostly Cloudy
10:00 AM 87.8 °F 99.7 °F 77.0 °F 70% 29.95 in 5.6 mi WSW 4.6 mph - N/A   Mostly Cloudy
11:00 AM 88 °F - 78 °F 65% 29.91 in 6 mi WSW 4.5 mph - -   Haze
11:00 AM 87.8 °F 102.5 °F 78.8 °F 75% 29.95 in 5.6 mi WSW 4.6 mph - N/A   Mostly Cloudy
12:00 PM 87.8 °F 102.5 °F 78.8 °F 75% 29.92 in 5.6 mi West 9.2 mph - N/A   Mostly Cloudy
1:00 PM 87.8 °F 99.7 °F 77.0 °F 70% 29.89 in 5.0 mi West 4.6 mph - N/A Rain Light Rain Showers
2:00 PM 86 °F - 76 °F 67% 29.86 in 5 mi WSW 4.5 mph - - Rain Light Rain
2:00 PM 86.0 °F 96.9 °F 77.0 °F 74% 29.89 in 5.0 mi WSW 4.6 mph - N/A Rain Light Rain
3:00 PM 84.2 °F 94.1 °F 77.0 °F 79% 29.86 in 5.0 mi South 4.6 mph - N/A Rain Light Rain
4:00 PM 84.2 °F 94.1 °F 77.0 °F 79% 29.86 in 5.0 mi Calm Calm - N/A   Overcast
5:00 PM 85 °F - 79 °F 79% 29.86 in 5 mi Calm Calm - -   Haze
5:00 PM 84.2 °F 96.1 °F 78.8 °F 84% 29.86 in 5.0 mi Calm Calm - N/A   Overcast
6:00 PM 84.2 °F 96.1 °F 78.8 °F 84% 29.89 in 5.0 mi Calm Calm - N/A   Overcast
8:00 PM 82 °F - 78 °F 85% 29.91 in 5 mi Calm Calm - -   Haze
8:00 PM 82.4 °F 92.4 °F 78.8 °F 89% 29.92 in 5.0 mi Calm Calm - N/A   Overcast
11:00 PM 81 °F - 75 °F 78% 29.94 in 5 mi Calm Calm - -   Haze
11:00 PM 80.6 °F 86.2 °F 75.2 °F 84% 29.95 in 5.0 mi Calm Calm - N/A   Overcast